owner,sensor,date,latitude,longitude,vertical_datum,mass_concentration_of_oxygen_in_sea_water,qcFlag 
SCCF RECON,ioos:station:SCCF:18:1,2013-10-01T00:00:00Z,26.6955,-81.8138,1.688,3.14,1111122 
SCCF RECON,ioos:station:SCCF:18:1,2013-10-01T01:00:00Z,26.6955,-81.8138,1.67,3.14,1111122 
SCCF RECON,ioos:station:SCCF:18:1,2013-10-01T02:00:00Z,26.6955,-81.8138,1.67,3.17,1111122 
SCCF RECON,ioos:station:SCCF:18:1,2013-10-01T03:00:00Z,26.6955,-81.8138,1.72,3.14,1111122 
SCCF RECON,ioos:station:SCCF:18:1,2013-10-01T04:00:00Z,26.6955,-81.8138,1.79,3.16,1111122 
SCCF RECON,ioos:station:SCCF:18:1,2013-10-01T05:00:00Z,26.6955,-81.8138,1.85,3.16,1111122 
SCCF RECON,ioos:station:SCCF:18:1,2013-10-01T06:00:00Z,26.6955,-81.8138,1.89,3.14,1111122 
SCCF RECON,ioos:station:SCCF:18:1,2013-10-01T07:00:00Z,26.6955,-81.8138,1.89,3.14,1111122 
SCCF RECON,ioos:station:SCCF:18:1,2013-10-01T08:00:00Z,26.6955,-81.8138,1.86,3.11,1111122 
SCCF RECON,ioos:station:SCCF:18:1,2013-10-01T09:00:00Z,26.6955,-81.8138,1.82,3.08,1111122 
SCCF RECON,ioos:station:SCCF:18:1,2013-10-01T10:00:00Z,26.6955,-81.8138,1.78,3.04,1111122 
SCCF RECON,ioos:station:SCCF:18:1,2013-10-01T11:00:00Z,26.6955,-81.8138,1.74,3.05,1111122 
SCCF RECON,ioos:station:SCCF:18:1,2013-10-01T12:00:00Z,26.6955,-81.8138,1.71,3.05,1111122 
SCCF RECON,ioos:station:SCCF:18:1,2013-10-01T13:00:00Z,26.6955,-81.8138,1.68,3.04,1111122 
SCCF RECON,ioos:station:SCCF:18:1,2013-10-01T14:00:00Z,26.6955,-81.8138,1.719,3.03,1111122 
SCCF RECON,ioos:station:SCCF:18:1,2013-10-01T15:00:00Z,26.6955,-81.8138,1.79,3.07,1111122 
SCCF RECON,ioos:station:SCCF:18:1,2013-10-01T16:00:00Z,26.6955,-81.8138,1.85,3.04,1111122 
SCCF RECON,ioos:station:SCCF:18:1,2013-10-01T17:00:00Z,26.6955,-81.8138,1.9,3.01,1111122 
SCCF RECON,ioos:station:SCCF:18:1,2013-10-01T18:00:00Z,26.6955,-81.8138,1.93,3.25,1111122 
SCCF RECON,ioos:station:SCCF:18:1,2013-10-01T19:00:00Z,26.6955,-81.8138,1.94,3.24,1111122 
SCCF RECON,ioos:station:SCCF:18:1,2013-10-01T20:00:00Z,26.6955,-81.8138,1.9,3.26,1111122 
SCCF RECON,ioos:station:SCCF:18:1,2013-10-01T21:00:00Z,26.6955,-81.8138,1.825,3.25,1111122 
SCCF RECON,ioos:station:SCCF:18:1,2013-10-01T22:00:00Z,26.6955,-81.8138,1.77,3.26,1111122 
SCCF RECON,ioos:station:SCCF:18:1,2013-10-01T23:00:00Z,26.6955,-81.8138,1.73,3.28,1111122 
SCCF RECON,ioos:station:SCCF:18:1,2013-10-02T00:00:00Z,26.6955,-81.8138,1.69,3.22,1111122 
SCCF RECON,ioos:station:SCCF:18:1,2013-10-02T01:00:00Z,26.6955,-81.8138,1.66,3.23,1111122 
SCCF RECON,ioos:station:SCCF:18:1,2013-10-02T02:00:00Z,26.6955,-81.8138,1.64,3.24,1111122 
SCCF RECON,ioos:station:SCCF:18:1,2013-10-02T03:00:00Z,26.6955,-81.8138,1.66,3.24,1111122 
SCCF RECON,ioos:station:SCCF:18:1,2013-10-02T04:00:00Z,26.6955,-81.8138,1.73,3.2,1111122 
SCCF RECON,ioos:station:SCCF:18:1,2013-10-02T05:00:00Z,26.6955,-81.8138,1.79,3.16,1111122 
SCCF RECON,ioos:station:SCCF:18:1,2013-10-02T06:00:00Z,26.6955,-81.8138,1.83,3.25,1111122 
SCCF RECON,ioos:station:SCCF:18:1,2013-10-02T07:00:00Z,26.6955,-81.8138,1.85,3.2,1111122 
SCCF RECON,ioos:station:SCCF:18:1,2013-10-02T08:00:00Z,26.6955,-81.8138,1.81,3.15,1111122 
SCCF RECON,ioos:station:SCCF:18:1,2013-10-02T09:00:00Z,26.6955,-81.8138,1.77,3.08,1111122 
SCCF RECON,ioos:station:SCCF:18:1,2013-10-02T10:00:00Z,26.6955,-81.8138,1.72,3.1,1111122 
SCCF RECON,ioos:station:SCCF:18:1,2013-10-02T11:00:00Z,26.6955,-81.8138,1.679,3.06,1111122 
SCCF RECON,ioos:station:SCCF:18:1,2013-10-02T12:00:00Z,26.6955,-81.8138,1.64,3.06,1111122 
SCCF RECON,ioos:station:SCCF:18:1,2013-10-02T13:00:00Z,26.6955,-81.8138,1.6,3.04,1111122 
SCCF RECON,ioos:station:SCCF:18:1,2013-10-02T14:00:00Z,26.6955,-81.8138,1.58,3.06,1111122 
SCCF RECON,ioos:station:SCCF:18:1,2013-10-02T16:00:00Z,26.6955,-81.8138,1.045,3.53,1111122 
SCCF RECON,ioos:station:SCCF:18:1,2013-10-02T17:00:00Z,26.6955,-81.8138,1.74,3.61,1111122 
SCCF RECON,ioos:station:SCCF:18:1,2013-10-02T18:00:00Z,26.6955,-81.8138,1.84,3.82,1111122 
SCCF RECON,ioos:station:SCCF:18:1,2013-10-02T19:00:00Z,26.6955,-81.8138,1.885,3.99,1111122 
SCCF RECON,ioos:station:SCCF:18:1,2013-10-02T20:00:00Z,26.6955,-81.8138,1.88,3.79,1111122 
SCCF RECON,ioos:station:SCCF:18:1,2013-10-02T21:00:00Z,26.6955,-81.8138,1.84,3.84,1111122 
SCCF RECON,ioos:station:SCCF:18:1,2013-10-02T22:00:00Z,26.6955,-81.8138,1.79,3.72,1111122 
SCCF RECON,ioos:station:SCCF:18:1,2013-10-02T23:00:00Z,26.6955,-81.8138,1.76,3.71,1111122 
SCCF RECON,ioos:station:SCCF:18:1,2013-10-03T00:00:00Z,26.6955,-81.8138,1.734,3.73,1111122 
SCCF RECON,ioos:station:SCCF:18:1,2013-10-03T01:00:00Z,26.6955,-81.8138,1.72,3.67,1111122 
SCCF RECON,ioos:station:SCCF:18:1,2013-10-03T02:00:00Z,26.6955,-81.8138,1.7,3.68,1111122 
SCCF RECON,ioos:station:SCCF:18:1,2013-10-03T03:00:00Z,26.6955,-81.8138,1.704,3.64,1111122 
SCCF RECON,ioos:station:SCCF:18:1,2013-10-03T04:00:00Z,26.6955,-81.8138,1.771,3.65,1111122 
SCCF RECON,ioos:station:SCCF:18:1,2013-10-03T05:00:00Z,26.6955,-81.8138,1.86,3.65,1111122 
SCCF RECON,ioos:station:SCCF:18:1,2013-10-03T06:00:00Z,26.6955,-81.8138,1.92,3.69,1111122 
SCCF RECON,ioos:station:SCCF:18:1,2013-10-03T07:00:00Z,26.6955,-81.8138,1.96,3.65,1111122 
SCCF RECON,ioos:station:SCCF:18:1,2013-10-03T08:00:00Z,26.6955,-81.8138,1.972,3.64,1111122 
SCCF RECON,ioos:station:SCCF:18:1,2013-10-03T09:00:00Z,26.6955,-81.8138,1.94,3.68,1111122 
SCCF RECON,ioos:station:SCCF:18:1,2013-10-03T10:00:00Z,26.6955,-81.8138,1.89,3.55,1111122 
SCCF RECON,ioos:station:SCCF:18:1,2013-10-03T11:00:00Z,26.6955,-81.8138,1.84,3.6,1111122 
SCCF RECON,ioos:station:SCCF:18:1,2013-10-03T12:00:00Z,26.6955,-81.8138,1.8,3.53,1111122 
SCCF RECON,ioos:station:SCCF:18:1,2013-10-03T13:00:00Z,26.6955,-81.8138,1.77,3.55,1111122 
SCCF RECON,ioos:station:SCCF:18:1,2013-10-03T14:00:00Z,26.6955,-81.8138,1.74,3.54,1111122 
SCCF RECON,ioos:station:SCCF:18:1,2013-10-03T15:00:00Z,26.6955,-81.8138,1.72,3.48,1111122 
SCCF RECON,ioos:station:SCCF:18:1,2013-10-03T16:00:00Z,26.6955,-81.8138,1.78,3.54,1111122 
SCCF RECON,ioos:station:SCCF:18:1,2013-10-03T17:00:00Z,26.6955,-81.8138,1.86,3.6,1111122 
SCCF RECON,ioos:station:SCCF:18:1,2013-10-03T18:00:00Z,26.6955,-81.8138,1.93,3.55,1111122 
SCCF RECON,ioos:station:SCCF:18:1,2013-10-03T19:00:00Z,26.6955,-81.8138,1.97,3.56,1111122 
SCCF RECON,ioos:station:SCCF:18:1,2013-10-03T20:00:00Z,26.6955,-81.8138,2.02,3.77,1111122 
SCCF RECON,ioos:station:SCCF:18:1,2013-10-03T21:00:00Z,26.6955,-81.8138,2.05,3.79,1111122 
SCCF RECON,ioos:station:SCCF:18:1,2013-10-03T22:00:00Z,26.6955,-81.8138,2.015,3.71,1111122 
SCCF RECON,ioos:station:SCCF:18:1,2013-10-03T23:00:00Z,26.6955,-81.8138,1.96,3.63,1111122 
SCCF RECON,ioos:station:SCCF:18:1,2013-10-04T00:00:00Z,26.6955,-81.8138,1.89,3.57,1111122 
SCCF RECON,ioos:station:SCCF:18:1,2013-10-04T01:00:00Z,26.6955,-81.8138,1.84,3.44,1111122 
SCCF RECON,ioos:station:SCCF:18:1,2013-10-04T02:00:00Z,26.6955,-81.8138,1.81,3.53,1111122 
SCCF RECON,ioos:station:SCCF:18:1,2013-10-04T03:00:00Z,26.6955,-81.8138,1.78,3.5,1111122 
SCCF RECON,ioos:station:SCCF:18:1,2013-10-04T04:00:00Z,26.6955,-81.8138,1.82,3.44,1111122 
SCCF RECON,ioos:station:SCCF:18:1,2013-10-04T05:00:00Z,26.6955,-81.8138,1.9,3.44,1111122 
SCCF RECON,ioos:station:SCCF:18:1,2013-10-04T06:00:00Z,26.6955,-81.8138,1.97,3.45,1111122 
SCCF RECON,ioos:station:SCCF:18:1,2013-10-04T07:00:00Z,26.6955,-81.8138,2.02,3.48,1111122 
SCCF RECON,ioos:station:SCCF:18:1,2013-10-04T08:00:00Z,26.6955,-81.8138,2.05,3.48,1111122 
SCCF RECON,ioos:station:SCCF:18:1,2013-10-04T09:00:00Z,26.6955,-81.8138,2.03,3.48,1111122 
SCCF RECON,ioos:station:SCCF:18:1,2013-10-04T10:00:00Z,26.6955,-81.8138,1.97,3.42,1111122 
SCCF RECON,ioos:station:SCCF:18:1,2013-10-04T11:00:00Z,26.6955,-81.8138,1.91,3.42,1111122 
SCCF RECON,ioos:station:SCCF:18:1,2013-10-04T12:00:00Z,26.6955,-81.8138,1.86,3.36,1111122 
SCCF RECON,ioos:station:SCCF:18:1,2013-10-04T13:00:00Z,26.6955,-81.8138,1.82,3.35,1111122 
SCCF RECON,ioos:station:SCCF:18:1,2013-10-04T14:00:00Z,26.6955,-81.8138,1.78,3.32,1111122 
SCCF RECON,ioos:station:SCCF:18:1,2013-10-04T15:00:00Z,26.6955,-81.8138,1.74,3.33,1111122 
SCCF RECON,ioos:station:SCCF:18:1,2013-10-04T16:00:00Z,26.6955,-81.8138,1.74,3.32,1111122 
SCCF RECON,ioos:station:SCCF:18:1,2013-10-04T17:00:00Z,26.6955,-81.8138,1.82,3.33,1111122 
SCCF RECON,ioos:station:SCCF:18:1,2013-10-04T18:00:00Z,26.6955,-81.8138,1.9,3.33,1111122 
SCCF RECON,ioos:station:SCCF:18:1,2013-10-04T19:00:00Z,26.6955,-81.8138,1.95,3.4,1111122 
SCCF RECON,ioos:station:SCCF:18:1,2013-10-04T20:00:00Z,26.6955,-81.8138,2.0,3.47,1111122 
SCCF RECON,ioos:station:SCCF:18:1,2013-10-04T21:00:00Z,26.6955,-81.8138,2.02,3.55,1111122 
SCCF RECON,ioos:station:SCCF:18:1,2013-10-04T22:00:00Z,26.6955,-81.8138,1.99,3.45,1111122 
SCCF RECON,ioos:station:SCCF:18:1,2013-10-04T23:00:00Z,26.6955,-81.8138,1.92,3.45,1111122 
SCCF RECON,ioos:station:SCCF:18:1,2013-10-05T00:00:00Z,26.6955,-81.8138,1.87,3.42,1111122 
SCCF RECON,ioos:station:SCCF:18:1,2013-10-05T01:00:00Z,26.6955,-81.8138,1.83,3.4,1111122 
SCCF RECON,ioos:station:SCCF:18:1,2013-10-05T02:00:00Z,26.6955,-81.8138,1.79,3.37,1111122 
SCCF RECON,ioos:station:SCCF:18:1,2013-10-05T03:00:00Z,26.6955,-81.8138,1.76,3.39,1111122 
SCCF RECON,ioos:station:SCCF:18:1,2013-10-05T04:00:00Z,26.6955,-81.8138,1.76,3.37,1111122 
SCCF RECON,ioos:station:SCCF:18:1,2013-10-05T05:00:00Z,26.6955,-81.8138,1.846,3.33,1111122 
SCCF RECON,ioos:station:SCCF:18:1,2013-10-05T06:00:00Z,26.6955,-81.8138,1.92,3.23,1111122 
SCCF RECON,ioos:station:SCCF:18:1,2013-10-05T07:00:00Z,26.6955,-81.8138,1.99,3.34,1111122 
SCCF RECON,ioos:station:SCCF:18:1,2013-10-05T08:00:00Z,26.6955,-81.8138,2.03,3.32,1111122 
SCCF RECON,ioos:station:SCCF:18:1,2013-10-05T09:00:00Z,26.6955,-81.8138,2.04,3.35,1111122 
SCCF RECON,ioos:station:SCCF:18:1,2013-10-05T10:00:00Z,26.6955,-81.8138,1.98,3.33,1111122 
SCCF RECON,ioos:station:SCCF:18:1,2013-10-05T11:00:00Z,26.6955,-81.8138,1.929,3.3,1111122 
SCCF RECON,ioos:station:SCCF:18:1,2013-10-05T12:00:00Z,26.6955,-81.8138,1.87,3.25,1111122 
SCCF RECON,ioos:station:SCCF:18:1,2013-10-05T13:00:00Z,26.6955,-81.8138,1.82,3.2,1111122 
SCCF RECON,ioos:station:SCCF:18:1,2013-10-05T14:00:00Z,26.6955,-81.8138,1.78,3.18,1111122 
SCCF RECON,ioos:station:SCCF:18:1,2013-10-05T15:00:00Z,26.6955,-81.8138,1.73,3.21,1111122 
SCCF RECON,ioos:station:SCCF:18:1,2013-10-05T16:00:00Z,26.6955,-81.8138,1.7,3.18,1111122 
SCCF RECON,ioos:station:SCCF:18:1,2013-10-05T17:00:00Z,26.6955,-81.8138,1.71,3.23,1111122 
SCCF RECON,ioos:station:SCCF:18:1,2013-10-05T18:00:00Z,26.6955,-81.8138,1.79,3.36,1111122 
SCCF RECON,ioos:station:SCCF:18:1,2013-10-05T19:00:00Z,26.6955,-81.8138,1.85,3.28,1111122 
SCCF RECON,ioos:station:SCCF:18:1,2013-10-05T20:00:00Z,26.6955,-81.8138,1.9,3.35,1111122 
SCCF RECON,ioos:station:SCCF:18:1,2013-10-05T21:00:00Z,26.6955,-81.8138,1.95,3.38,1111122 
SCCF RECON,ioos:station:SCCF:18:1,2013-10-05T22:00:00Z,26.6955,-81.8138,1.95,3.33,1111122 
SCCF RECON,ioos:station:SCCF:18:1,2013-10-05T23:00:00Z,26.6955,-81.8138,1.91,3.42,1111122 
SCCF RECON,ioos:station:SCCF:18:1,2013-10-06T00:00:00Z,26.6955,-81.8138,1.84,3.45,1111122 
SCCF RECON,ioos:station:SCCF:18:1,2013-10-06T01:00:00Z,26.6955,-81.8138,1.8,3.36,1111122 
SCCF RECON,ioos:station:SCCF:18:1,2013-10-06T02:00:00Z,26.6955,-81.8138,1.764,3.29,1111122 
SCCF RECON,ioos:station:SCCF:18:1,2013-10-06T03:00:00Z,26.6955,-81.8138,1.73,3.29,1111122 
SCCF RECON,ioos:station:SCCF:18:1,2013-10-06T04:00:00Z,26.6955,-81.8138,1.709,3.31,1111122 
SCCF RECON,ioos:station:SCCF:18:1,2013-10-06T05:00:00Z,26.6955,-81.8138,1.77,3.31,1111122 
SCCF RECON,ioos:station:SCCF:18:1,2013-10-06T06:00:00Z,26.6955,-81.8138,1.86,3.28,1111122 
SCCF RECON,ioos:station:SCCF:18:1,2013-10-06T07:00:00Z,26.6955,-81.8138,1.93,3.25,1111122 
SCCF RECON,ioos:station:SCCF:18:1,2013-10-06T08:00:00Z,26.6955,-81.8138,1.99,3.25,1111122 
SCCF RECON,ioos:station:SCCF:18:1,2013-10-06T09:00:00Z,26.6955,-81.8138,2.03,3.23,1111122 
SCCF RECON,ioos:station:SCCF:18:1,2013-10-06T10:00:00Z,26.6955,-81.8138,2.03,3.28,1111122 
SCCF RECON,ioos:station:SCCF:18:1,2013-10-06T11:00:00Z,26.6955,-81.8138,1.96,3.25,1111122 
SCCF RECON,ioos:station:SCCF:18:1,2013-10-06T12:00:00Z,26.6955,-81.8138,1.9,3.23,1111122 
SCCF RECON,ioos:station:SCCF:18:1,2013-10-06T13:00:00Z,26.6955,-81.8138,1.85,3.19,1111122 
SCCF RECON,ioos:station:SCCF:18:1,2013-10-06T14:00:00Z,26.6955,-81.8138,1.8,3.15,1111122 
SCCF RECON,ioos:station:SCCF:18:1,2013-10-06T15:00:00Z,26.6955,-81.8138,1.75,3.11,1111122 
SCCF RECON,ioos:station:SCCF:18:1,2013-10-06T16:00:00Z,26.6955,-81.8138,1.71,3.13,1111122 
SCCF RECON,ioos:station:SCCF:18:1,2013-10-06T17:00:00Z,26.6955,-81.8138,1.69,3.15,1111122 
SCCF RECON,ioos:station:SCCF:18:1,2013-10-06T18:00:00Z,26.6955,-81.8138,1.76,3.13,1111122 
SCCF RECON,ioos:station:SCCF:18:1,2013-10-06T19:00:00Z,26.6955,-81.8138,1.86,3.28,1111122 
SCCF RECON,ioos:station:SCCF:18:1,2013-10-06T20:00:00Z,26.6955,-81.8138,1.9,3.18,1111122 
SCCF RECON,ioos:station:SCCF:18:1,2013-10-06T21:00:00Z,26.6955,-81.8138,1.96,3.36,1111122 
SCCF RECON,ioos:station:SCCF:18:1,2013-10-06T22:00:00Z,26.6955,-81.8138,2.0,3.13,1111122 
SCCF RECON,ioos:station:SCCF:18:1,2013-10-06T23:00:00Z,26.6955,-81.8138,2.011,3.44,1111122 
SCCF RECON,ioos:station:SCCF:18:1,2013-10-07T00:00:00Z,26.6955,-81.8138,1.96,3.4,1111122 
SCCF RECON,ioos:station:SCCF:18:1,2013-10-07T01:00:00Z,26.6955,-81.8138,1.89,3.34,1111122 
SCCF RECON,ioos:station:SCCF:18:1,2013-10-07T02:00:00Z,26.6955,-81.8138,1.85,3.41,1111122 
SCCF RECON,ioos:station:SCCF:18:1,2013-10-07T03:00:00Z,26.6955,-81.8138,1.8,3.36,1111122 
SCCF RECON,ioos:station:SCCF:18:1,2013-10-07T04:00:00Z,26.6955,-81.8138,1.75,3.22,1111122 
SCCF RECON,ioos:station:SCCF:18:1,2013-10-07T05:00:00Z,26.6955,-81.8138,1.74,3.24,1111122 
SCCF RECON,ioos:station:SCCF:18:1,2013-10-07T06:00:00Z,26.6955,-81.8138,1.83,3.21,1111122 
SCCF RECON,ioos:station:SCCF:18:1,2013-10-07T07:00:00Z,26.6955,-81.8138,1.92,3.2,1111122 
SCCF RECON,ioos:station:SCCF:18:1,2013-10-07T08:00:00Z,26.6955,-81.8138,1.98,3.21,1111122 
SCCF RECON,ioos:station:SCCF:18:1,2013-10-07T09:00:00Z,26.6955,-81.8138,2.03,3.12,1111122 
SCCF RECON,ioos:station:SCCF:18:1,2013-10-07T10:00:00Z,26.6955,-81.8138,2.06,3.25,1111122 
SCCF RECON,ioos:station:SCCF:18:1,2013-10-07T11:00:00Z,26.6955,-81.8138,2.04,3.18,1111122 
SCCF RECON,ioos:station:SCCF:18:1,2013-10-07T12:00:00Z,26.6955,-81.8138,1.97,3.18,1111122 
SCCF RECON,ioos:station:SCCF:18:1,2013-10-07T13:00:00Z,26.6955,-81.8138,1.91,3.15,1111122 
SCCF RECON,ioos:station:SCCF:18:1,2013-10-07T14:00:00Z,26.6955,-81.8138,1.87,3.21,1111122 
SCCF RECON,ioos:station:SCCF:18:1,2013-10-07T15:00:00Z,26.6955,-81.8138,1.84,3.25,1111122 
SCCF RECON,ioos:station:SCCF:18:1,2013-10-07T16:00:00Z,26.6955,-81.8138,1.82,3.34,1111122 
SCCF RECON,ioos:station:SCCF:18:1,2013-10-07T17:00:00Z,26.6955,-81.8138,1.829,3.45,1111122 
SCCF RECON,ioos:station:SCCF:18:1,2013-10-07T18:00:00Z,26.6955,-81.8138,1.79,3.68,1111122 
SCCF RECON,ioos:station:SCCF:18:1,2013-10-07T19:00:00Z,26.6955,-81.8138,1.89,3.69,1111122 
SCCF RECON,ioos:station:SCCF:18:1,2013-10-07T20:00:00Z,26.6955,-81.8138,1.946,3.76,1111122 
SCCF RECON,ioos:station:SCCF:18:1,2013-10-07T21:00:00Z,26.6955,-81.8138,2.01,3.85,1111122 
SCCF RECON,ioos:station:SCCF:18:1,2013-10-07T22:00:00Z,26.6955,-81.8138,2.06,3.89,1111122 
SCCF RECON,ioos:station:SCCF:18:1,2013-10-07T23:00:00Z,26.6955,-81.8138,2.1,3.8,1111122 
SCCF RECON,ioos:station:SCCF:18:1,2013-10-08T00:00:00Z,26.6955,-81.8138,2.08,3.85,1111122 
SCCF RECON,ioos:station:SCCF:18:1,2013-10-08T01:00:00Z,26.6955,-81.8138,2.03,3.93,1111122 
SCCF RECON,ioos:station:SCCF:18:1,2013-10-08T02:00:00Z,26.6955,-81.8138,1.97,3.9,1111122 
SCCF RECON,ioos:station:SCCF:18:1,2013-10-08T03:00:00Z,26.6955,-81.8138,1.92,3.72,1111122 
SCCF RECON,ioos:station:SCCF:18:1,2013-10-08T04:00:00Z,26.6955,-81.8138,1.88,3.79,1111122 
SCCF RECON,ioos:station:SCCF:18:1,2013-10-08T05:00:00Z,26.6955,-81.8138,1.84,3.65,1111122 
SCCF RECON,ioos:station:SCCF:18:1,2013-10-08T06:00:00Z,26.6955,-81.8138,1.84,3.81,1111122 
SCCF RECON,ioos:station:SCCF:18:1,2013-10-08T07:00:00Z,26.6955,-81.8138,1.93,3.51,1111122 
SCCF RECON,ioos:station:SCCF:18:1,2013-10-08T08:00:00Z,26.6955,-81.8138,2.0,3.49,1111122 
SCCF RECON,ioos:station:SCCF:18:1,2013-10-08T09:00:00Z,26.6955,-81.8138,2.06,3.55,1111122 
SCCF RECON,ioos:station:SCCF:18:1,2013-10-08T10:00:00Z,26.6955,-81.8138,2.1,3.54,1111122 
SCCF RECON,ioos:station:SCCF:18:1,2013-10-08T11:00:00Z,26.6955,-81.8138,2.1,3.56,1111122 
SCCF RECON,ioos:station:SCCF:18:1,2013-10-08T12:00:00Z,26.6955,-81.8138,2.032,3.59,1111122 
SCCF RECON,ioos:station:SCCF:18:1,2013-10-08T13:00:00Z,26.6955,-81.8138,1.98,3.65,1111122 
SCCF RECON,ioos:station:SCCF:18:1,2013-10-08T14:00:00Z,26.6955,-81.8138,1.93,3.64,1111122 
SCCF RECON,ioos:station:SCCF:18:1,2013-10-08T15:00:00Z,26.6955,-81.8138,1.88,3.5,1111122 
SCCF RECON,ioos:station:SCCF:18:1,2013-10-08T16:00:00Z,26.6955,-81.8138,1.82,3.42,1111122 
SCCF RECON,ioos:station:SCCF:18:1,2013-10-08T17:00:00Z,26.6955,-81.8138,1.75,3.29,1111122 
SCCF RECON,ioos:station:SCCF:18:1,2013-10-08T18:00:00Z,26.6955,-81.8138,1.7,3.26,1111122 
SCCF RECON,ioos:station:SCCF:18:1,2013-10-08T19:00:00Z,26.6955,-81.8138,1.68,3.52,1111122 
SCCF RECON,ioos:station:SCCF:18:1,2013-10-08T20:00:00Z,26.6955,-81.8138,1.703,3.73,1111122 
SCCF RECON,ioos:station:SCCF:18:1,2013-10-08T21:00:00Z,26.6955,-81.8138,1.77,3.67,1111122 
SCCF RECON,ioos:station:SCCF:18:1,2013-10-08T22:00:00Z,26.6955,-81.8138,1.83,3.67,1111122 
SCCF RECON,ioos:station:SCCF:18:1,2013-10-08T23:00:00Z,26.6955,-81.8138,1.87,3.68,1111122 
SCCF RECON,ioos:station:SCCF:18:1,2013-10-09T00:00:00Z,26.6955,-81.8138,1.89,3.72,1111122 
SCCF RECON,ioos:station:SCCF:18:1,2013-10-09T01:00:00Z,26.6955,-81.8138,1.87,3.8,1111122 
SCCF RECON,ioos:station:SCCF:18:1,2013-10-09T02:00:00Z,26.6955,-81.8138,1.82,3.76,1111122 
SCCF RECON,ioos:station:SCCF:18:1,2013-10-09T03:00:00Z,26.6955,-81.8138,1.77,3.64,1111122 
SCCF RECON,ioos:station:SCCF:18:1,2013-10-09T04:00:00Z,26.6955,-81.8138,1.73,3.62,1111122 
SCCF RECON,ioos:station:SCCF:18:1,2013-10-09T05:00:00Z,26.6955,-81.8138,1.7,3.54,1111122 
SCCF RECON,ioos:station:SCCF:18:1,2013-10-09T06:00:00Z,26.6955,-81.8138,1.69,3.51,1111122 
SCCF RECON,ioos:station:SCCF:18:1,2013-10-09T07:00:00Z,26.6955,-81.8138,1.74,3.51,1111122 
SCCF RECON,ioos:station:SCCF:18:1,2013-10-09T08:00:00Z,26.6955,-81.8138,1.81,3.5,1111122 
SCCF RECON,ioos:station:SCCF:18:1,2013-10-09T09:00:00Z,26.6955,-81.8138,1.88,3.5,1111122 
SCCF RECON,ioos:station:SCCF:18:1,2013-10-09T10:00:00Z,26.6955,-81.8138,1.93,3.49,1111122 
SCCF RECON,ioos:station:SCCF:18:1,2013-10-09T11:00:00Z,26.6955,-81.8138,1.96,3.51,1111122 
SCCF RECON,ioos:station:SCCF:18:1,2013-10-09T12:00:00Z,26.6955,-81.8138,1.94,3.52,1111122 
SCCF RECON,ioos:station:SCCF:18:1,2013-10-09T13:00:00Z,26.6955,-81.8138,1.87,3.8,1111122 
SCCF RECON,ioos:station:SCCF:18:1,2013-10-09T14:00:00Z,26.6955,-81.8138,1.826,3.4,1111122 
SCCF RECON,ioos:station:SCCF:18:1,2013-10-09T15:00:00Z,26.6955,-81.8138,1.76,3.59,1111122 
SCCF RECON,ioos:station:SCCF:18:1,2013-10-09T16:00:00Z,26.6955,-81.8138,1.71,3.33,1111122 
SCCF RECON,ioos:station:SCCF:18:1,2013-10-09T17:00:00Z,26.6955,-81.8138,1.65,3.33,1111122 
SCCF RECON,ioos:station:SCCF:18:1,2013-10-09T18:00:00Z,26.6955,-81.8138,1.59,3.27,1111122 
SCCF RECON,ioos:station:SCCF:18:1,2013-10-09T19:00:00Z,26.6955,-81.8138,1.54,3.31,1111122 
SCCF RECON,ioos:station:SCCF:18:1,2013-10-09T20:00:00Z,26.6955,-81.8138,1.53,3.3,1111122 
SCCF RECON,ioos:station:SCCF:18:1,2013-10-09T21:00:00Z,26.6955,-81.8138,1.582,3.65,1111122 
SCCF RECON,ioos:station:SCCF:18:1,2013-10-09T22:00:00Z,26.6955,-81.8138,1.64,3.52,1111122 
SCCF RECON,ioos:station:SCCF:18:1,2013-10-09T23:00:00Z,26.6955,-81.8138,1.7,3.53,1111122 
SCCF RECON,ioos:station:SCCF:18:1,2013-10-10T00:00:00Z,26.6955,-81.8138,1.74,3.56,1111122 
SCCF RECON,ioos:station:SCCF:18:1,2013-10-10T01:00:00Z,26.6955,-81.8138,1.78,3.55,1111122 
SCCF RECON,ioos:station:SCCF:18:1,2013-10-10T02:00:00Z,26.6955,-81.8138,1.79,3.77,1111122 
SCCF RECON,ioos:station:SCCF:18:1,2013-10-10T03:00:00Z,26.6955,-81.8138,1.75,3.63,1111122 
SCCF RECON,ioos:station:SCCF:18:1,2013-10-10T04:00:00Z,26.6955,-81.8138,1.69,3.6,1111122 
SCCF RECON,ioos:station:SCCF:18:1,2013-10-10T05:00:00Z,26.6955,-81.8138,1.66,3.41,1111122 
SCCF RECON,ioos:station:SCCF:18:1,2013-10-10T06:00:00Z,26.6955,-81.8138,1.63,3.44,1111122 
SCCF RECON,ioos:station:SCCF:18:1,2013-10-10T07:00:00Z,26.6955,-81.8138,1.64,3.38,1111122 
SCCF RECON,ioos:station:SCCF:18:1,2013-10-10T08:00:00Z,26.6955,-81.8138,1.699,3.43,1111122 
SCCF RECON,ioos:station:SCCF:18:1,2013-10-10T09:00:00Z,26.6955,-81.8138,1.77,3.37,1111122 
SCCF RECON,ioos:station:SCCF:18:1,2013-10-10T10:00:00Z,26.6955,-81.8138,1.83,3.38,1111122 
SCCF RECON,ioos:station:SCCF:18:1,2013-10-10T11:00:00Z,26.6955,-81.8138,1.887,3.37,1111122 
SCCF RECON,ioos:station:SCCF:18:1,2013-10-10T12:00:00Z,26.6955,-81.8138,1.92,3.37,1111122 
SCCF RECON,ioos:station:SCCF:18:1,2013-10-10T13:00:00Z,26.6955,-81.8138,1.9,3.44,1111122 
SCCF RECON,ioos:station:SCCF:18:1,2013-10-10T14:00:00Z,26.6955,-81.8138,1.837,3.63,1111122 
SCCF RECON,ioos:station:SCCF:18:1,2013-10-10T15:00:00Z,26.6955,-81.8138,1.78,3.49,1111122 
SCCF RECON,ioos:station:SCCF:18:1,2013-10-10T16:00:00Z,26.6955,-81.8138,1.73,3.29,1111122 
SCCF RECON,ioos:station:SCCF:18:1,2013-10-10T17:00:00Z,26.6955,-81.8138,1.66,3.3,1111122 
SCCF RECON,ioos:station:SCCF:18:1,2013-10-10T18:00:00Z,26.6955,-81.8138,1.619,3.32,1111122 
SCCF RECON,ioos:station:SCCF:18:1,2013-10-10T19:00:00Z,26.6955,-81.8138,1.57,3.42,1111122 
SCCF RECON,ioos:station:SCCF:18:1,2013-10-10T20:00:00Z,26.6955,-81.8138,1.52,3.48,1111122 
SCCF RECON,ioos:station:SCCF:18:1,2013-10-10T21:00:00Z,26.6955,-81.8138,1.48,3.24,1111122 
SCCF RECON,ioos:station:SCCF:18:1,2013-10-10T22:00:00Z,26.6955,-81.8138,1.53,3.66,1111122 
SCCF RECON,ioos:station:SCCF:18:1,2013-10-10T23:00:00Z,26.6955,-81.8138,1.58,3.46,1111122 
SCCF RECON,ioos:station:SCCF:18:1,2013-10-11T00:00:00Z,26.6955,-81.8138,1.65,3.51,1111122 
SCCF RECON,ioos:station:SCCF:18:1,2013-10-11T01:00:00Z,26.6955,-81.8138,1.7,3.59,1111122 
SCCF RECON,ioos:station:SCCF:18:1,2013-10-11T02:00:00Z,26.6955,-81.8138,1.74,3.63,1111122 
SCCF RECON,ioos:station:SCCF:18:1,2013-10-11T03:00:00Z,26.6955,-81.8138,1.75,3.69,1111122 
SCCF RECON,ioos:station:SCCF:18:1,2013-10-11T04:00:00Z,26.6955,-81.8138,1.73,3.66,1111122 
SCCF RECON,ioos:station:SCCF:18:1,2013-10-11T05:00:00Z,26.6955,-81.8138,1.71,3.46,1111122 
SCCF RECON,ioos:station:SCCF:18:1,2013-10-11T06:00:00Z,26.6955,-81.8138,1.67,3.54,1111122 
SCCF RECON,ioos:station:SCCF:18:1,2013-10-11T07:00:00Z,26.6955,-81.8138,1.64,3.46,1111122 
SCCF RECON,ioos:station:SCCF:18:1,2013-10-11T08:00:00Z,26.6955,-81.8138,1.64,3.45,1111122 
SCCF RECON,ioos:station:SCCF:18:1,2013-10-11T09:00:00Z,26.6955,-81.8138,1.69,3.35,1111122 
SCCF RECON,ioos:station:SCCF:18:1,2013-10-11T10:00:00Z,26.6955,-81.8138,1.78,3.49,1111122 
SCCF RECON,ioos:station:SCCF:18:1,2013-10-11T11:00:00Z,26.6955,-81.8138,1.84,3.48,1111122 
SCCF RECON,ioos:station:SCCF:18:1,2013-10-11T12:00:00Z,26.6955,-81.8138,1.9,3.48,1111122 
SCCF RECON,ioos:station:SCCF:18:1,2013-10-11T13:00:00Z,26.6955,-81.8138,1.93,3.5,1111122 
SCCF RECON,ioos:station:SCCF:18:1,2013-10-11T14:00:00Z,26.6955,-81.8138,1.93,3.43,1111122 
SCCF RECON,ioos:station:SCCF:18:1,2013-10-11T15:00:00Z,26.6955,-81.8138,1.88,3.58,1111122 
SCCF RECON,ioos:station:SCCF:18:1,2013-10-11T16:00:00Z,26.6955,-81.8138,1.82,3.53,1111122 
SCCF RECON,ioos:station:SCCF:18:1,2013-10-11T17:00:00Z,26.6955,-81.8138,1.75,3.35,1111122 
SCCF RECON,ioos:station:SCCF:18:1,2013-10-11T18:00:00Z,26.6955,-81.8138,1.69,3.29,1111122 
SCCF RECON,ioos:station:SCCF:18:1,2013-10-11T19:00:00Z,26.6955,-81.8138,1.64,3.21,1111122 
SCCF RECON,ioos:station:SCCF:18:1,2013-10-11T20:00:00Z,26.6955,-81.8138,1.59,3.26,1111122 
SCCF RECON,ioos:station:SCCF:18:1,2013-10-11T21:00:00Z,26.6955,-81.8138,1.546,3.25,1111122 
SCCF RECON,ioos:station:SCCF:18:1,2013-10-11T22:00:00Z,26.6955,-81.8138,1.51,3.04,1111122 